Location: *
(35.2348°S, 91.3916°E)
Time: 23:44:07
(UTC+00:00)

Cosmos 1733 - Pass Details

Date: 23 October 2019
Orbit: 505 x 523 km, 82.5° (Epoch: 20 November)

Event Time Altitude Azimuth Distance (km) Brightness Sun altitude
Exits shadow 21:49:06 - 359° (N) 2,173 6.1 -14.7°
Reaches altitude 10° 21:50:11 10° 0° (N) 1,726 5.6 -14.5°
Maximum altitude 21:53:57 74° 84° (E) 539 3.4 -13.8°
Drops below altitude 10° 21:57:47 10° 169° (S) 1,750 6.4 -13.1°
Sets 21:59:56 0° 171° (S) 2,644 7.3 -12.7°
